Radiation Dose at Monitoring Post of Fukushima Daini Nuclear Power Station
Date,Time,MP-1(microSv/h),MP-2(microSv/h),MP-3(microSv/h),MP-4(microSv/h),MP-5(microSv/h),MP-6(microSv/h),MP-7(microSv/h),Wind Direction,Wind Velocity(m/s),Rain
2016/09/13,00:00,0.379,0.230,0.396,0.362,0.356,0.187,0.158,north-northwest,7.7,Yes
2016/09/13,00:10,0.383,0.230,0.395,0.364,0.357,0.188,0.158,north-northwest,7.4,No
2016/09/13,00:20,0.382,0.230,0.393,0.363,0.355,0.186,0.159,north-northwest,7.2,Yes
2016/09/13,00:30,0.381,0.229,0.398,0.361,0.357,0.187,0.157,north-northwest,6.4,No
2016/09/13,00:40,0.383,0.231,0.393,0.363,0.359,0.186,0.159,north-northwest,6.4,Yes
2016/09/13,00:50,0.378,0.229,0.399,0.361,0.355,0.186,0.156,north-northwest,6.1,Yes
2016/09/13,01:00,0.382,0.231,0.395,0.363,0.357,0.187,0.158,north-northwest,5.3,Yes
2016/09/13,01:10,0.381,0.229,0.395,0.362,0.355,0.185,0.157,north-northwest,5.1,Yes
2016/09/13,01:20,0.381,0.230,0.397,0.361,0.358,0.186,0.157,north-northwest,4.9,Yes
2016/09/13,01:30,0.380,0.230,0.393,0.362,0.355,0.186,0.158,north-northwest,4.7,Yes
2016/09/13,01:40,0.377,0.228,0.395,0.360,0.353,0.186,0.156,north,4.7,Yes
2016/09/13,01:50,0.382,0.230,0.394,0.362,0.357,0.186,0.158,north,5.1,Yes
2016/09/13,02:00,0.378,0.230,0.394,0.362,0.353,0.185,0.157,north-northwest,5.0,Yes
2016/09/13,02:10,0.381,0.229,0.395,0.360,0.358,0.186,0.159,north,4.7,Yes
2016/09/13,02:20,0.379,0.230,0.392,0.362,0.357,0.187,0.157,north,3.8,Yes
2016/09/13,02:30,0.378,0.229,0.393,0.359,0.355,0.187,0.157,north,4.4,Yes
2016/09/13,02:40,0.380,0.230,0.392,0.362,0.358,0.185,0.159,north-northeast,3.6,Yes
2016/09/13,02:50,0.379,0.229,0.395,0.360,0.353,0.186,0.157,north-northeast,2.3,Yes
2016/09/13,03:00,0.381,0.230,0.393,0.359,0.356,0.186,0.160,north,2.5,Yes
2016/09/13,03:10,0.378,0.230,0.392,0.361,0.355,0.185,0.159,north,2.8,Yes
2016/09/13,03:20,0.379,0.229,0.394,0.359,0.356,0.187,0.158,north-northwest,2.9,Yes
2016/09/13,03:30,0.380,0.231,0.392,0.361,0.358,0.186,0.159,northwest,2.4,Yes
2016/09/13,03:40,0.379,0.230,0.393,0.359,0.355,0.185,0.158,north-northwest,5.3,Yes
2016/09/13,03:50,0.378,0.231,0.393,0.358,0.358,0.187,0.159,north-northwest,7.8,Yes
2016/09/13,04:00,0.376,0.231,0.389,0.359,0.355,0.187,0.159,north-northwest,14.6,Yes
2016/09/13,04:10,0.377,0.229,0.391,0.354,0.356,0.186,0.159,north-northwest,12.7,Yes
2016/09/13,04:20,0.377,0.230,0.388,0.357,0.356,0.187,0.159,north,20.8,Yes
2016/09/13,04:30,0.374,0.230,0.391,0.356,0.355,0.186,0.157,west-northwest,4.2,Yes
2016/09/13,04:40,0.376,0.230,0.389,0.354,0.356,0.186,0.159,northwest,6.0,Yes
2016/09/13,04:50,0.372,0.230,0.387,0.356,0.354,0.185,0.158,north,5.5,Yes
2016/09/13,05:00,0.375,0.230,0.389,0.354,0.358,0.186,0.159,north-northwest,5.0,Yes
2016/09/13,05:10,0.374,0.231,0.387,0.356,0.354,0.185,0.159,northwest,5.5,Yes
2016/09/13,05:20,0.374,0.230,0.388,0.353,0.355,0.185,0.159,north-northwest,8.8,Yes
2016/09/13,05:30,0.374,0.230,0.384,0.354,0.356,0.185,0.159,west-northwest,4.4,Yes
2016/09/13,05:40,0.371,0.230,0.385,0.354,0.352,0.184,0.158,west-southwest,6.7,Yes
2016/09/13,05:50,0.373,0.231,0.387,0.350,0.356,0.185,0.159,north-northwest,7.1,Yes
2016/09/13,06:00,0.370,0.229,0.383,0.354,0.351,0.184,0.158,north,13.2,Yes
2016/09/13,06:10,0.373,0.228,0.385,0.350,0.354,0.184,0.158,north-northwest,7.3,Yes
2016/09/13,06:20,0.372,0.230,0.384,0.354,0.352,0.185,0.158,north-northeast,8.4,Yes
2016/09/13,06:30,0.371,0.229,0.384,0.351,0.352,0.183,0.157,north-northeast,10.4,Yes
2016/09/13,06:40,0.374,0.229,0.386,0.350,0.355,0.183,0.158,north-northwest,8.9,Yes
2016/09/13,06:50,0.371,0.230,0.385,0.357,0.352,0.184,0.157,north-northwest,8.9,Yes
2016/09/13,07:00,0.374,0.228,0.389,0.353,0.357,0.183,0.160,north-northwest,9.1,Yes
2016/09/13,07:10,0.372,0.230,0.386,0.358,0.354,0.184,0.158,north-northwest,6.6,Yes
2016/09/13,07:20,0.375,0.229,0.388,0.357,0.355,0.182,0.158,north-northwest,7.3,Yes
2016/09/13,07:30,0.376,0.231,0.388,0.356,0.357,0.182,0.158,north-northwest,8.9,Yes
2016/09/13,07:40,0.374,0.231,0.390,0.359,0.353,0.183,0.157,north-northwest,7.8,Yes
2016/09/13,07:50,0.376,0.229,0.391,0.356,0.357,0.183,0.159,north-northwest,7.1,Yes
2016/09/13,08:00,0.375,0.229,0.390,0.360,0.355,0.184,0.157,north-northwest,7.8,Yes
2016/09/13,08:10,0.376,0.229,0.392,0.358,0.355,0.182,0.158,north,6.7,Yes
2016/09/13,08:20,0.374,0.230,0.392,0.357,0.358,0.183,0.157,north-northwest,5.2,Yes
2016/09/13,08:30,0.373,0.228,0.392,0.359,0.354,0.183,0.157,north-northeast,3.6,Yes
2016/09/13,08:40,0.376,0.228,0.394,0.355,0.358,0.182,0.158,east-northeast,7.5,Yes
2016/09/13,08:50,0.373,0.228,0.390,0.359,0.354,0.183,0.157,east,7.9,Yes
2016/09/13,09:00,0.376,0.226,0.393,0.358,0.355,0.182,0.158,east,9.5,Yes
2016/09/13,09:10,0.374,0.229,0.391,0.359,0.357,0.184,0.158,east-northeast,8.1,Yes
2016/09/13,09:20,0.377,0.229,0.392,0.361,0.353,0.184,0.158,northeast,7.1,Yes
2016/09/13,09:30,0.376,0.229,0.393,0.358,0.358,0.184,0.158,north-northeast,5.4,Yes
2016/09/13,09:40,0.373,0.229,0.391,0.361,0.355,0.184,0.158,north,6.9,Yes
2016/09/13,09:50,0.375,0.227,0.391,0.357,0.357,0.185,0.158,north,5.3,Yes
2016/09/13,10:00,0.370,0.229,0.387,0.356,0.356,0.184,0.158,north,6.8,Yes
2016/09/13,10:10,0.373,0.227,0.390,0.359,0.355,0.184,0.157,north,6.7,Yes
2016/09/13,10:20,0.373,0.228,0.391,0.356,0.357,0.183,0.158,north,7.8,Yes
2016/09/13,10:30,0.373,0.229,0.388,0.360,0.354,0.183,0.156,north,7.6,Yes
2016/09/13,10:40,0.375,0.227,0.392,0.358,0.358,0.182,0.157,north-northwest,7.6,Yes
2016/09/13,10:50,0.371,0.229,0.389,0.357,0.354,0.184,0.157,north,7.5,Yes
2016/09/13,11:00,0.373,0.226,0.389,0.358,0.353,0.182,0.157,north,6.8,Yes
2016/09/13,11:10,0.369,0.227,0.388,0.353,0.355,0.183,0.156,north,8.1,Yes
2016/09/13,11:20,0.370,0.227,0.382,0.354,0.349,0.181,0.156,north,10.8,Yes
2016/09/13,11:30,0.371,0.228,0.381,0.347,0.352,0.182,0.159,north,12.8,Yes
2016/09/13,11:40,0.369,0.231,0.379,0.348,0.350,0.184,0.159,north,10.7,Yes
2016/09/13,11:50,0.373,0.231,0.381,0.350,0.354,0.182,0.160,north,10.2,Yes
2016/09/13,12:00,0.371,0.233,0.380,0.349,0.353,0.185,0.159,north,11.9,Yes
2016/09/13,12:10,0.373,0.233,0.380,0.352,0.353,0.184,0.160,north,11.0,Yes
2016/09/13,12:20,0.370,0.232,0.383,0.350,0.356,0.183,0.159,north,11.8,Yes
2016/09/13,12:30,0.370,0.232,0.382,0.354,0.352,0.184,0.158,north,10.7,Yes
2016/09/13,12:40,0.372,0.230,0.384,0.355,0.357,0.182,0.159,north,8.0,Yes
2016/09/13,12:50,0.369,0.230,0.384,0.352,0.355,0.183,0.158,north-northeast,9.5,Yes
2016/09/13,13:00,0.373,0.228,0.385,0.356,0.355,0.181,0.156,north-northeast,10.1,Yes
2016/09/13,13:10,0.370,0.227,0.384,0.351,0.354,0.180,0.157,north-northeast,10.4,Yes
2016/09/13,13:20,0.369,0.228,0.382,0.352,0.352,0.180,0.155,north-northeast,8.6,Yes
2016/09/13,13:30,0.371,0.227,0.384,0.354,0.357,0.180,0.156,north-northeast,8.7,Yes
2016/09/13,13:40,0.368,0.227,0.384,0.352,0.351,0.181,0.155,north-northeast,8.5,Yes
2016/09/13,13:50,0.372,0.227,0.387,0.356,0.354,0.180,0.155,north,8.9,Yes
2016/09/13,14:00,0.367,0.226,0.386,0.354,0.353,0.180,0.155,north,9.3,Yes
2016/09/13,14:10,0.372,0.226,0.384,0.355,0.353,0.180,0.154,north,8.7,Yes
2016/09/13,14:20,0.371,0.226,0.389,0.356,0.356,0.180,0.156,north,8.3,Yes
2016/09/13,14:30,0.370,0.227,0.386,0.354,0.350,0.180,0.155,north,7.8,Yes
2016/09/13,14:40,0.372,0.224,0.388,0.357,0.355,0.180,0.155,north,9.2,Yes
2016/09/13,14:50,0.369,0.227,0.386,0.355,0.354,0.179,0.156,north,9.2,Yes
2016/09/13,15:00,0.372,0.226,0.387,0.353,0.353,0.180,0.155,north,9.1,Yes
2016/09/13,15:10,0.370,0.226,0.391,0.357,0.355,0.179,0.154,north,8.3,Yes
2016/09/13,15:20,0.372,0.226,0.387,0.355,0.354,0.181,0.154,north,7.4,Yes
2016/09/13,15:30,0.373,0.225,0.390,0.358,0.358,0.180,0.154,north,6.9,Yes
2016/09/13,15:40,0.370,0.227,0.388,0.357,0.352,0.180,0.155,north,11.1,Yes
2016/09/13,15:50,0.374,0.226,0.389,0.356,0.354,0.180,0.153,north,8.2,Yes
2016/09/13,16:00,0.370,0.225,0.391,0.358,0.354,0.180,0.155,north,8.5,Yes
2016/09/13,16:10,0.374,0.226,0.388,0.356,0.352,0.181,0.154,north,7.3,Yes
2016/09/13,16:20,0.371,0.225,0.390,0.359,0.357,0.180,0.154,north,8.1,Yes
2016/09/13,16:30,0.372,0.227,0.389,0.356,0.352,0.181,0.154,north,9.2,Yes
2016/09/13,16:40,0.372,0.225,0.391,0.358,0.356,0.180,0.154,north,8.6,Yes
2016/09/13,16:50,0.372,0.228,0.391,0.359,0.352,0.181,0.155,north,8.8,Yes
2016/09/13,17:00,0.375,0.226,0.390,0.356,0.354,0.181,0.154,north,8.4,Yes
2016/09/13,17:10,0.372,0.226,0.391,0.359,0.355,0.182,0.155,north,7.8,Yes
2016/09/13,17:20,0.376,0.227,0.390,0.358,0.355,0.183,0.155,north,8.3,Yes
2016/09/13,17:30,0.373,0.225,0.390,0.360,0.354,0.181,0.155,north,8.4,Yes
2016/09/13,17:40,0.374,0.227,0.389,0.360,0.352,0.182,0.154,north,8.6,Yes
2016/09/13,17:50,0.373,0.226,0.393,0.359,0.357,0.182,0.155,north,9.2,Yes
2016/09/13,18:00,0.375,0.227,0.391,0.360,0.352,0.182,0.155,north-northwest,9.2,Yes
2016/09/13,18:10,0.374,0.228,0.392,0.359,0.355,0.183,0.156,north,10.0,Yes
2016/09/13,18:20,0.374,0.228,0.392,0.361,0.353,0.182,0.155,north-northwest,9.2,Yes
2016/09/13,18:30,0.374,0.226,0.389,0.358,0.355,0.182,0.155,north-northwest,9.2,No
2016/09/13,18:40,0.372,0.226,0.394,0.360,0.353,0.182,0.156,north-northwest,9.8,Yes
2016/09/13,18:50,0.377,0.227,0.392,0.361,0.355,0.183,0.154,north-northwest,8.5,No
2016/09/13,19:00,0.374,0.226,0.394,0.360,0.355,0.183,0.155,north-northwest,9.2,Yes
2016/09/13,19:10,0.376,0.226,0.391,0.361,0.354,0.182,0.155,north-northwest,8.8,Yes
2016/09/13,19:20,0.374,0.226,0.393,0.359,0.355,0.183,0.155,north-northwest,9.5,Yes
2016/09/13,19:30,0.378,0.227,0.395,0.362,0.354,0.182,0.155,north-northwest,10.4,Yes
2016/09/13,19:40,0.375,0.226,0.393,0.359,0.356,0.182,0.155,north-northwest,10.1,Yes
2016/09/13,19:50,0.376,0.228,0.395,0.362,0.354,0.183,0.155,north,9.6,Yes
2016/09/13,20:00,0.375,0.227,0.393,0.360,0.356,0.182,0.155,north,10.5,No
2016/09/13,20:10,0.377,0.227,0.395,0.361,0.354,0.184,0.155,north,10.1,Yes
2016/09/13,20:20,0.376,0.228,0.391,0.362,0.355,0.182,0.154,north,9.3,Yes
2016/09/13,20:30,0.376,0.226,0.394,0.360,0.352,0.182,0.156,north,10.1,Yes
2016/09/13,20:40,0.377,0.227,0.391,0.363,0.356,0.182,0.155,north,9.4,Yes
2016/09/13,20:50,0.374,0.225,0.393,0.358,0.353,0.183,0.156,north,9.5,Yes
2016/09/13,21:00,0.378,0.229,0.394,0.361,0.357,0.184,0.154,north,8.4,Yes
2016/09/13,21:10,0.375,0.227,0.394,0.360,0.353,0.183,0.156,north,8.8,Yes
2016/09/13,21:20,0.378,0.228,0.395,0.361,0.355,0.184,0.156,north,9.2,Yes
2016/09/13,21:30,0.376,0.229,0.393,0.361,0.355,0.183,0.156,north-northwest,8.6,Yes
2016/09/13,21:40,0.379,0.228,0.396,0.361,0.355,0.185,0.156,north-northwest,8.4,Yes
2016/09/13,21:50,0.376,0.229,0.393,0.362,0.356,0.184,0.155,north,9.2,Yes
2016/09/13,22:00,0.376,0.229,0.396,0.361,0.354,0.184,0.158,north-northwest,8.1,Yes
2016/09/13,22:10,0.377,0.228,0.395,0.363,0.357,0.185,0.156,north-northwest,8.7,Yes
2016/09/13,22:20,0.375,0.227,0.394,0.358,0.353,0.183,0.157,north-northwest,8.5,Yes
2016/09/13,22:30,0.377,0.229,0.395,0.362,0.357,0.184,0.155,north-northwest,8.3,Yes
2016/09/13,22:40,0.374,0.226,0.394,0.360,0.354,0.184,0.156,north-northwest,8.9,Yes
2016/09/13,22:50,0.379,0.228,0.396,0.362,0.357,0.184,0.156,north-northwest,8.7,No
2016/09/13,23:00,0.375,0.227,0.391,0.360,0.353,0.184,0.157,north-northwest,9.3,No
2016/09/13,23:10,0.377,0.228,0.397,0.362,0.354,0.183,0.155,north-northwest,9.2,No
2016/09/13,23:20,0.375,0.226,0.392,0.362,0.354,0.184,0.155,north-northwest,9.9,No
2016/09/13,23:30,0.377,0.227,0.395,0.360,0.356,0.182,0.155,north-northwest,9.2,No
2016/09/13,23:40,0.376,0.227,0.395,0.361,0.355,0.185,0.154,north-northwest,9.1,No
2016/09/13,23:50,0.378,0.226,0.391,0.361,0.354,0.184,0.156,north-northwest,8.4,No
